Regional Weather Roundup
Issued by NWS

Home | Current Version | Previous Version | Text Only | Print | Product List | Glossary On
Versions: 1 2 3 4 5 6 7 8 9 10 11 12 13 14 15 16 17 18 19 20 21 22 23 24 25 26 27 28 29 30 31 32 33 34 35 36 37 38 39 40 41 42 43 44 45 46 47 48 49 50
000
ASUS43 KDTX 270310
RWRMI
MICHIGAN HOURLY REGIONAL WEATHER ROUNDUP
NATIONAL WEATHER SERVICE DETROIT/PONTIAC MI
1000 PM EST FRI DEC 26 2014

NOTE: "FAIR" INDICATES FEW OR NO CLOUDS BELOW 12,000 FEET WITH NO
SIGNIFICANT WEATHER AND/OR OBSTRUCTION TO VISIBILITY.

MIZ047>049-052>055-059>063-066>070-074>076-081>083-270400-
SOUTHEAST LOWER MICHIGAN

CITY           SKY/WX    TMP DP  RH WIND       PRES   REMARKS
ADRIAN         CLOUDY    41  38  89 S8        30.11S
ALMA           CLOUDY    35  35  99 CALM      30.08R
ANN ARBOR      PTCLDY    38  36  92 SW7       30.10S
BAD AXE        FOG       30  30 100 CALM      30.09S VSB 3/4
DETROIT CITY   PTCLDY    45  37  73 SW14      30.11S
DETROIT        MOCLDY    40  37  89 S8        30.11F
FLINT          CLOUDY    42  37  82 S5        30.10S
GROSSE ILE     PTCLDY    39  37  93 S10       30.11S
HILLSDALE      CLOUDY    43  41  93 S8        30.09R
HOWELL         CLOUDY    41  38  92 CALM      30.09R

CITY           SKY/WX    TMP DP  RH WIND       PRES   REMARKS
JACKSON        CLOUDY    44  39  82 S5        30.09R
LAMBERTVILLE   PTCLDY    41  36  81 S5        30.13R
LANSING        CLOUDY    42  37  82 S6        30.09R
LAPEER         NOT AVBL
MASON          CLOUDY    39  36  87 S3        30.09R
MONROE         MOCLDY    39  36  87 S3        30.11S
MT. CLEMENS    PTCLDY    38  38 100 SW6       30.10R
PONTIAC        PTCLDY    40  38  93 SW3       30.10R
PORT HOPE        N/A     32  31  96 CALM      30.08S
PORT HURON       N/A     34  32  93 CALM      30.12R FOG
TRI CITIES     CLOUDY    41  35  79 S6        30.08R
YPSILANTI      PTCLDY    41  35  79 S8        30.11S
$$
MIZ043>046-050>051-056>058-064>065-071>073-077>080-270400-
SOUTHWEST LOWER MICHIGAN

CITY           SKY/WX    TMP DP  RH WIND       PRES   REMARKS
BATTLE CREEK   CLOUDY    45  39  79 SW7       30.08R
BENTON HARBOR  CLOUDY    47  41  80 S5        30.06S
BIG RAPIDS     PTCLDY    34  34 100 CALM      30.03F FOG
COLDWATER      CLOUDY    43  38  83 S8        30.08S
HOLLAND        CLOUDY    42  37  82 SE6       30.05F
GRAND RAPIDS   CLOUDY    40  36  86 S7        30.06S
KALAMAZOO      CLOUDY    46  40  79 SW8       30.07S
MARSHALL       CLOUDY    44  40  85 S6        30.08R
MUSKEGON       MOCLDY    41  37  86 SE7       30.04F
$$
MIZ016>042-270400-
NORTHERN LOWER MICHIGAN

CITY           SKY/WX    TMP DP  RH WIND       PRES   REMARKS
ALPENA         CLOUDY    38  33  82 SW3       30.07S
BEAVER ISLAND  CLOUDY    34  34  99 E3        30.04S FOG
BELLAIRE       CLOUDY    39  35  88 CALM      30.05S
CADILLAC       PTCLDY    32  31  97 CALM      30.02S FOG
CHARLEVOIX     CLOUDY    38  36  92 CALM      30.07S
FRANKFORT      CLOUDY    38  37  94 CALM      30.04R
GAYLORD        CLOUDY    34  33  96 S6        30.03S
GRAYLING       CLOUDY    34  34  99 SE3       30.05S
HARBOR SPRINGS CLOUDY    38  34  85 CALM      30.04S
HOUGHTON LAKE  PTCLDY    32  31  96 CALM      30.04S
MANISTEE       CLEAR     30  27  86 CALM      30.04S
OSCODA         CLOUDY    34  33  96 CALM      30.08R
PELLSTON       CLOUDY    35  34  96 CALM      30.04F
TRAVERSE CITY  CLOUDY    40  35  83 CALM      30.04R
$$
MIZ007>008-015-270400-
EASTERN UPPER MICHIGAN

CITY           SKY/WX    TMP DP  RH WIND       PRES   REMARKS
KINROSS        CLOUDY    34  34 100 CALM      30.04S
MACKINAC ISLAN FOG       36  36 100 E3        30.04S VSB 3/4
NEWBERRY       CLOUDY    32  32 100 NW5       30.03S FOG
S. S. MARIE    LGT RAIN  34  32  92 CALM      30.04F FOG
$$
MIZ004>006-011>014-085-270400-
CENTRAL UPPER MICHIGAN

CITY           SKY/WX    TMP DP  RH WIND       PRES   REMARKS
MANISTIQUE     CLOUDY    33  33 100 CALM      30.04S FOG
ESCANABA       CLOUDY    34  30  86 CALM      30.04S
MENOMINEE      MOCLDY    34  30  86 NE7       30.03S
SAWYER-GWINN   CLOUDY    32  30  93 NE3       30.02S
$$
MIZ001>003-009>011-084-270400-
WESTERN UPPER MICHIGAN

CITY           SKY/WX    TMP DP  RH WIND       PRES   REMARKS
IRON MOUNTAIN  CLOUDY    31  29  92 N3        30.02R FOG
HOUGHTON       CLOUDY    31  27  85 NE3       30.04S
COPPER HARBOR    N/A     35  26  69 NE9       30.06R
IRONWOOD       CLOUDY    28  27  93 CALM      30.03R
$$

ABBREVIATIONS USED IN REMARKS
   TC - TEMPERATURE IN CELSIUS
  WCI - WIND CHILL INDEX
   HX - HEAT INDEX
  VSB - VISIBILITY




USA.gov is the U.S. government's official web portal to all federal, state and local government web resources and services.